| time (UTC) | temp F | wind direction | speed MPH | gust MPH | rain 1hr in | rain 24hr in | rain mn in | humidity % | barometer mb |
| 20260831141217 | 84 | 0 | 6.0 | 9.0 | 0.00 | 0.00 | 0.00 | 65 | 1016.2 |
| 20260831140217 | 84 | 0 | 6.0 | 9.0 | 0.00 | 0.00 | 0.00 | 67 | 1016.2 |
| 20260831135217 | 82 | 0 | 3.0 | 5.0 | 0.00 | 0.00 | 0.00 | 68 | 1016.1 |
| 20260831134217 | 82 | 0 | 5.0 | 8.0 | 0.00 | 0.00 | 0.00 | 68 | 1015.9 |
| 20260831133217 | 81 | 0 | 4.0 | 5.0 | 0.00 | 0.00 | 0.00 | 69 | 1015.8 |
| 20260831132217 | 80 | 180 | 4.0 | 5.0 | 0.00 | 0.00 | 0.00 | 69 | 1015.7 |
| 20260831131217 | 79 | 225 | 5.0 | 7.0 | 0.00 | 0.00 | 0.00 | 70 | 1015.6 |
| 20260831130216 | 78 | 203 | 5.0 | 8.0 | 0.00 | 0.00 | 0.00 | 71 | 1015.4 |
| 20260831125217 | 78 | 180 | 2.0 | 5.0 | 0.00 | 0.00 | 0.00 | 71 | 1015.2 |
| 20260831124217 | 77 | 203 | 3.0 | 4.0 | 0.00 | 0.00 | 0.00 | 71 | 1015.1 |
| 20260831123216 | 77 | 180 | 3.0 | 5.0 | 0.00 | 0.00 | 0.00 | 71 | 1014.9 |
| 20260831122216 | 77 | 0 | 2.0 | 4.0 | 0.00 | 0.00 | 0.00 | 71 | 1014.8 |
| 20260831121216 | 77 | 180 | 2.0 | 4.0 | 0.00 | 0.00 | 0.00 | 71 | 1014.6 |
| 20260831120217 | 77 | 203 | 4.0 | 5.0 | 0.00 | 0.00 | 0.00 | 71 | 1014.5 |
| 20260831115216 | 77 | 203 | 4.0 | 5.0 | 0.00 | 0.00 | 0.00 | 70 | 1014.3 |
| 20260831114217 | 77 | 203 | 2.0 | 4.0 | 0.00 | 0.00 | 0.00 | 69 | 1014.3 |
| 20260831113216 | 77 | 180 | 4.0 | 6.0 | 0.00 | 0.00 | 0.00 | 69 | 1014.3 |
| 20260831112216 | 77 | 203 | 5.0 | 7.0 | 0.00 | 0.00 | 0.00 | 68 | 1014.2 |
| 20260831111216 | 78 | 203 | 5.0 | 6.0 | 0.00 | 0.00 | 0.00 | 68 | 1014.1 |
| 20260831110216 | 78 | 180 | 3.0 | 5.0 | 0.00 | 0.00 | 0.00 | 67 | 1014.0 |
| 20260831105216 | 78 | 158 | 2.0 | 4.0 | 0.00 | 0.00 | 0.00 | 67 | 1013.9 |
| 20260831104216 | 78 | 180 | 2.0 | 2.0 | 0.00 | 0.00 | 0.00 | 66 | 1013.9 |
| 20260831103216 | 78 | 203 | 2.0 | 3.0 | 0.00 | 0.00 | 0.00 | 66 | 1013.8 |
| 20260831102216 | 79 | 180 | 3.0 | 4.0 | 0.00 | 0.00 | 0.00 | 65 | 1013.9 |
| 20260831101216 | 79 | 0 | 4.0 | 7.0 | 0.00 | 0.00 | 0.00 | 65 | 1013.9 |
| 20260831100216 | 79 | 180 | 2.0 | 5.0 | 0.00 | 0.00 | 0.00 | 64 | 1013.7 |
| 20260831095216 | 79 | 203 | 2.0 | 4.0 | 0.00 | 0.00 | 0.00 | 63 | 1013.6 |
| 20260831094216 | 80 | 158 | 3.0 | 5.0 | 0.00 | 0.00 | 0.00 | 63 | 1013.7 |
| 20260831093216 | 80 | 180 | 3.0 | 5.0 | 0.00 | 0.00 | 0.00 | 62 | 1013.7 |
| 20260831092216 | 80 | 158 | 1.0 | 2.0 | 0.00 | 0.00 | 0.00 | 62 | 1013.7 |
| 20260831091216 | 80 | 158 | 1.0 | 3.0 | 0.00 | 0.00 | 0.00 | 61 | 1013.6 |
| 20260831090216 | 81 | 0 | 2.0 | 4.0 | 0.00 | 0.00 | 0.00 | 61 | 1013.5 |
| 20260831085216 | 81 | 180 | 2.0 | 4.0 | 0.00 | 0.00 | 0.00 | 60 | 1013.5 |
| 20260831084216 | 81 | 158 | 3.0 | 4.0 | 0.00 | 0.00 | 0.00 | 60 | 1013.4 |
| 20260831083216 | 81 | 135 | 3.0 | 5.0 | 0.00 | 0.00 | 0.00 | 60 | 1013.4 |
| 20260831082216 | 81 | 158 | 3.0 | 6.0 | 0.00 | 0.00 | 0.00 | 60 | 1013.5 |
| 20260831081216 | 81 | 158 | 2.0 | 4.0 | 0.00 | 0.00 | 0.00 | 60 | 1013.3 |
| 20260831080216 | 81 | 135 | 2.0 | 3.0 | 0.00 | 0.00 | 0.00 | 60 | 1013.2 |
| 20260831075216 | 81 | 135 | 2.0 | 3.0 | 0.00 | 0.00 | 0.00 | 59 | 1013.2 |
| 20260831074236 | 81 | 135 | 1.0 | 1.0 | 0.00 | 0.00 | 0.00 | 59 | 1013.3 |
| 20260831073216 | 82 | 0.0 | 0.0 | 0.00 | 0.00 | 0.00 | 58 | 1013.3 | |
| 20260831072216 | 82 | 0.0 | 0.0 | 0.00 | 0.00 | 0.00 | 57 | 1013.3 | |
| 20260831071216 | 82 | 135 | 1.0 | 2.0 | 0.00 | 0.00 | 0.00 | 57 | 1013.3 |
| 20260831070216 | 83 | 203 | 2.0 | 3.0 | 0.00 | 0.00 | 0.00 | 56 | 1013.3 |
| 20260831065216 | 83 | 203 | 1.0 | 2.0 | 0.00 | 0.00 | 0.00 | 56 | 1013.4 |
| 20260831064216 | 83 | 180 | 1.0 | 2.0 | 0.00 | 0.00 | 0.00 | 55 | 1013.4 |
| 20260831063216 | 84 | 203 | 2.0 | 2.0 | 0.00 | 0.00 | 0.00 | 55 | 1013.3 |
| 20260831062216 | 84 | 203 | 2.0 | 4.0 | 0.00 | 0.00 | 0.00 | 54 | 1013.3 |
| 20260831061215 | 84 | 0 | 3.0 | 6.0 | 0.00 | 0.00 | 0.00 | 54 | 1013.3 |
| 20260831060216 | 84 | 0 | 3.0 | 5.0 | 0.00 | 0.00 | 0.00 | 53 | 1013.3 |
| 20260831055216 | 84 | 203 | 2.0 | 4.0 | 0.00 | 0.00 | 0.00 | 53 | 1013.2 |
| 20260831054235 | 85 | 180 | 2.0 | 2.0 | 0.00 | 0.00 | 0.00 | 52 | 1013.3 |
| 20260831053215 | 85 | 180 | 2.0 | 4.0 | 0.00 | 0.00 | 0.00 | 52 | 1013.3 |
| 20260831052215 | 85 | 203 | 2.0 | 4.0 | 0.00 | 0.00 | 0.00 | 51 | 1013.3 |
| 20260831051236 | 85 | 203 | 2.0 | 4.0 | 0.00 | 0.00 | 0.00 | 51 | 1013.1 |
| 20260831050215 | 86 | 203 | 2.0 | 4.0 | 0.00 | 0.00 | 0.00 | 51 | 1013.0 |
| 20260831045215 | 86 | 180 | 3.0 | 4.0 | 0.00 | 0.00 | 0.00 | 51 | 1013.0 |
| 20260831044215 | 85 | 180 | 2.0 | 3.0 | 0.00 | 0.00 | 0.00 | 51 | 1013.2 |
| 20260831043215 | 86 | 180 | 1.0 | 1.0 | 0.00 | 0.00 | 0.00 | 51 | 1013.2 |
| 20260831042235 | 86 | 0 | 2.0 | 3.0 | 0.00 | 0.00 | 0.00 | 50 | 1013.2 |
| 20260831041217 | 87 | 180 | 3.0 | 5.0 | 0.00 | 0.00 | 0.00 | 49 | 1013.2 |
| 20260831040217 | 87 | 180 | 2.0 | 3.0 | 0.00 | 0.00 | 0.00 | 48 | 1013.1 |
| 20260831035217 | 88 | 0 | 2.0 | 3.0 | 0.00 | 0.00 | 0.00 | 48 | 1013.0 |
| 20260831034237 | 88 | 0 | 3.0 | 6.0 | 0.00 | 0.00 | 0.00 | 47 | 1012.9 |
| 20260831033217 | 88 | 180 | 2.0 | 5.0 | 0.00 | 0.00 | 0.00 | 47 | 1012.8 |
| 20260831032217 | 89 | 0 | 2.0 | 5.0 | 0.00 | 0.00 | 0.00 | 46 | 1012.8 |
| 20260831031235 | 89 | 180 | 2.0 | 5.0 | 0.00 | 0.00 | 0.00 | 46 | 1012.8 |
| 20260831030217 | 89 | 0.0 | 1.0 | 0.00 | 0.00 | 0.00 | 45 | 1012.8 | |
| 20260831025217 | 90 | 180 | 2.0 | 4.0 | 0.00 | 0.00 | 0.00 | 45 | 1012.6 |
| 20260831024217 | 90 | 203 | 2.0 | 4.0 | 0.00 | 0.00 | 0.00 | 45 | 1012.6 |
| 20260831023217 | 90 | 0.0 | 2.0 | 0.00 | 0.00 | 0.00 | 44 | 1012.4 | |
| 20260831022217 | 91 | 203 | 1.0 | 2.0 | 0.00 | 0.00 | 0.00 | 44 | 1012.4 |
| 20260831021217 | 91 | 203 | 2.0 | 2.0 | 0.00 | 0.00 | 0.00 | 43 | 1012.1 |
| 20260831020217 | 92 | 203 | 1.0 | 2.0 | 0.00 | 0.00 | 0.00 | 42 | 1012.0 |
| 20260831015217 | 92 | 203 | 1.0 | 2.0 | 0.00 | 0.00 | 0.00 | 42 | 1011.8 |
| 20260831014217 | 93 | 180 | 1.0 | 3.0 | 0.00 | 0.00 | 0.00 | 41 | 1011.7 |
| 20260831013217 | 93 | 180 | 2.0 | 4.0 | 0.00 | 0.00 | 0.00 | 40 | 1011.7 |
| 20260831012217 | 94 | 180 | 3.0 | 4.0 | 0.00 | 0.00 | 0.00 | 40 | 1011.6 |
| 20260831011217 | 94 | 203 | 2.0 | 5.0 | 0.00 | 0.00 | 0.00 | 39 | 1011.5 |
| 20260831010216 | 95 | 180 | 3.0 | 5.0 | 0.00 | 0.00 | 0.00 | 38 | 1011.5 |
| 20260831005217 | 95 | 0 | 4.0 | 5.0 | 0.00 | 0.00 | 0.00 | 38 | 1011.6 |
| 20260831004217 | 96 | 0 | 4.0 | 9.0 | 0.00 | 0.00 | 0.00 | 37 | 1011.5 |
| 20260831003217 | 97 | 180 | 3.0 | 4.0 | 0.00 | 0.00 | 0.00 | 37 | 1011.6 |
| 20260831002216 | 97 | 0 | 5.0 | 6.0 | 0.00 | 0.00 | 0.00 | 36 | 1011.5 |
| 20260831001216 | 97 | 0 | 4.0 | 6.0 | 0.00 | 0.00 | 0.00 | 36 | 1011.6 |
| 20260831000218 | 98 | 0 | 6.0 | 9.0 | 0.00 | 0.00 | 0.00 | 35 | 1011.7 |
| 20260830235216 | 98 | 203 | 4.0 | 6.0 | 0.00 | 0.00 | 0.00 | 35 | 1011.7 |
| 20260830234237 | 99 | 0 | 5.0 | 8.0 | 0.00 | 0.00 | 0.00 | 34 | 1011.7 |
| 20260830233216 | 99 | 203 | 7.0 | 11.0 | 0.00 | 0.00 | 0.00 | 32 | 1011.7 |
| 20260830232216 | 99 | 0 | 7.0 | 11.0 | 0.00 | 0.00 | 0.00 | 32 | 1011.8 |
| 20260830231216 | 99 | 0 | 6.0 | 8.0 | 0.00 | 0.00 | 0.00 | 33 | 1011.7 |
| 20260830230216 | 99 | 0 | 5.0 | 7.0 | 0.00 | 0.00 | 0.00 | 32 | 1011.8 |
| 20260830225216 | 99 | 0 | 6.0 | 8.0 | 0.00 | 0.00 | 0.00 | 32 | 1011.8 |
| 20260830224216 | 99 | 0 | 6.0 | 8.0 | 0.00 | 0.00 | 0.00 | 32 | 1011.9 |
| 20260830223216 | 99 | 0 | 7.0 | 8.0 | 0.00 | 0.00 | 0.00 | 33 | 1011.9 |
| 20260830222217 | 99 | 0 | 5.0 | 7.0 | 0.00 | 0.00 | 0.00 | 34 | 1011.9 |
| 20260830221216 | 99 | 135 | 3.0 | 5.0 | 0.00 | 0.00 | 0.00 | 35 | 1011.9 |
| 20260830220216 | 98 | 0 | 8.0 | 13.0 | 0.00 | 0.00 | 0.00 | 36 | 1012.0 |
| 20260830215217 | 99 | 0 | 9.0 | 12.0 | 0.00 | 0.00 | 0.00 | 36 | 1012.0 |
| 20260830214216 | 99 | 158 | 3.0 | 5.0 | 0.00 | 0.00 | 0.00 | 37 | 1012.1 |
| 20260830213216 | 99 | 225 | 5.0 | 8.0 | 0.00 | 0.00 | 0.00 | 36 | 1012.2 |
| 20260830212216 | 99 | 0 | 5.0 | 7.0 | 0.00 | 0.00 | 0.00 | 36 | 1012.4 |
| 20260830211216 | 99 | 0 | 9.0 | 13.0 | 0.00 | 0.00 | 0.00 | 38 | 1012.5 |
| 20260830210216 | 98 | 225 | 7.0 | 10.0 | 0.00 | 0.00 | 0.00 | 37 | 1012.5 |
| 20260830205216 | 98 | 225 | 6.0 | 8.0 | 0.00 | 0.00 | 0.00 | 37 | 1012.6 |
| 20260830204216 | 99 | 135 | 6.0 | 10.0 | 0.00 | 0.00 | 0.00 | 37 | 1012.8 |
| 20260830203216 | 99 | 0 | 11.0 | 18.0 | 0.00 | 0.00 | 0.00 | 37 | 1012.9 |
| 20260830202216 | 99 | 0 | 6.0 | 8.0 | 0.00 | 0.00 | 0.00 | 37 | 1012.9 |
| 20260830201216 | 99 | 0 | 9.0 | 12.0 | 0.00 | 0.00 | 0.00 | 36 | 1013.1 |
| 20260830200216 | 99 | 0 | 7.0 | 10.0 | 0.00 | 0.00 | 0.00 | 36 | 1013.2 |
| 20260830195236 | 99 | 0 | 8.0 | 10.0 | 0.00 | 0.00 | 0.00 | 37 | 1013.4 |
| 20260830194216 | 99 | 0 | 8.0 | 10.0 | 0.00 | 0.00 | 0.00 | 38 | 1013.6 |
| 20260830193216 | 99 | 0 | 7.0 | 9.0 | 0.00 | 0.00 | 0.00 | 38 | 1013.6 |
| 20260830192216 | 98 | 135 | 8.0 | 13.0 | 0.00 | 0.00 | 0.00 | 39 | 1013.7 |
| 20260830191216 | 97 | 0 | 7.0 | 12.0 | 0.00 | 0.00 | 0.00 | 40 | 1013.8 |
| 20260830190216 | 98 | 0 | 8.0 | 15.0 | 0.00 | 0.00 | 0.00 | 40 | 1014.0 |
| 20260830185216 | 98 | 0 | 9.0 | 13.0 | 0.00 | 0.00 | 0.00 | 39 | 1014.1 |
| 20260830184236 | 96 | 225 | 5.0 | 7.0 | 0.00 | 0.00 | 0.00 | 41 | 1014.1 |
| 20260830183216 | 98 | 225 | 7.0 | 9.0 | 0.00 | 0.00 | 0.00 | 40 | 1014.2 |
| 20260830182236 | 97 | 0 | 6.0 | 11.0 | 0.00 | 0.00 | 0.00 | 40 | 1014.4 |
| 20260830181216 | 97 | 0 | 8.0 | 16.0 | 0.00 | 0.00 | 0.00 | 41 | 1014.5 |
| 20260830180216 | 96 | 0 | 10.0 | 13.0 | 0.00 | 0.00 | 0.00 | 42 | 1014.7 |
| 20260830175215 | 96 | 203 | 5.0 | 9.0 | 0.00 | 0.00 | 0.00 | 41 | 1014.8 |
| 20260830174216 | 96 | 203 | 6.0 | 11.0 | 0.00 | 0.00 | 0.00 | 44 | 1015.0 |
| 20260830173215 | 95 | 225 | 7.0 | 9.0 | 0.00 | 0.00 | 0.00 | 45 | 1014.9 |
| 20260830172256 | 95 | 0 | 6.0 | 9.0 | 0.00 | 0.00 | 0.00 | 46 | 1015.0 |
| 20260830171215 | 95 | 180 | 8.0 | 10.0 | 0.00 | 0.00 | 0.00 | 46 | 1015.3 |
| 20260830170216 | 95 | 0 | 7.0 | 10.0 | 0.00 | 0.00 | 0.00 | 46 | 1015.4 |
| 20260830165215 | 94 | 0 | 9.0 | 11.0 | 0.00 | 0.00 | 0.00 | 49 | 1015.4 |
| 20260830164216 | 94 | 0 | 5.0 | 12.0 | 0.00 | 0.00 | 0.00 | 49 | 1015.5 |
| 20260830163215 | 93 | 225 | 5.0 | 8.0 | 0.00 | 0.00 | 0.00 | 52 | 1015.7 |
| 20260830162236 | 93 | 0 | 7.0 | 9.0 | 0.00 | 0.00 | 0.00 | 51 | 1015.7 |
| 20260830161235 | 93 | 0 | 7.0 | 11.0 | 0.00 | 0.00 | 0.00 | 52 | 1015.7 |
| 20260830160215 | 92 | 0 | 6.0 | 8.0 | 0.00 | 0.00 | 0.00 | 54 | 1015.7 |
| 20260830155215 | 91 | 203 | 8.0 | 11.0 | 0.00 | 0.00 | 0.00 | 54 | 1015.7 |
| 20260830154215 | 91 | 0 | 8.0 | 11.0 | 0.00 | 0.00 | 0.00 | 55 | 1015.8 |
| 20260830153215 | 91 | 0 | 6.0 | 9.0 | 0.00 | 0.00 | 0.00 | 56 | 1015.8 |
| 20260830152215 | 89 | 248 | 5.0 | 7.0 | 0.00 | 0.00 | 0.00 | 57 | 1015.8 |
| 20260830151215 | 89 | 0 | 6.0 | 9.0 | 0.00 | 0.00 | 0.00 | 58 | 1015.7 |
| 20260830150215 | 89 | 0 | 4.0 | 8.0 | 0.00 | 0.00 | 0.00 | 59 | 1015.8 |
| 20260830145215 | 88 | 0 | 4.0 | 6.0 | 0.00 | 0.00 | 0.00 | 60 | 1015.8 |
| 20260830144215 | 87 | 203 | 5.0 | 7.0 | 0.00 | 0.00 | 0.00 | 61 | 1015.8 |
| 20260830143236 | 86 | 0 | 6.0 | 9.0 | 0.00 | 0.00 | 0.00 | 62 | 1015.7 |
| 20260830142215 | 85 | 0 | 5.0 | 6.0 | 0.00 | 0.00 | 0.00 | 62 | 1015.8 |